EW3012 Livadea RO current weather conditions

sailwx.info

Wind from 272 at 0 knots gusting 1

Air temperature 8.3° C
Dewpoint 7.1° C

Last reported at 2020-May-29 22:05 UTC.
Time now 2020-May-29 22:23 UTC

Location: N 45°12' E 025°55'.
View on Google Maps.

See reports from other nearby stations

  
Tides and Currents Weather Stations Pressure Air Temp Water Temp Dewpoint Dewpoint Depression Visibility Wind Speed Wind Dir Waves Ship Positions
date/time (UTC)wind fromknots sea level pressurealtimeterstation pressurevisibilityair tempwater tempwave heightnotes
2020-May-29 22:05 272 0 gusting 1 8.3
2020-May-29 22:00 266 0 gusting 1 8.3
2020-May-29 21:54 250 8.3
2020-May-29 21:49 243 8.3
2020-May-29 21:44 350 8.3
2020-May-29 21:38 268 8.3
2020-May-29 21:33 208 0 gusting 4 8.3
2020-May-29 21:28 259 0 gusting 4 8.3
2020-May-29 21:23 278 0 gusting 3 8.3
2020-May-29 21:18 240 0 gusting 3 8.3
2020-May-29 21:13 294 7.8
2020-May-29 21:08 314 7.8
2020-May-29 21:02 298 8.3
2020-May-29 20:57 297 8.3
2020-May-29 20:52 297 8.3
2020-May-29 20:46 298 8.3
2020-May-29 20:41 307 8.3
2020-May-29 20:36 306 8.9
2020-May-29 20:30 306 8.9
2020-May-29 20:25 293 8.9
2020-May-29 20:19 290 8.9
2020-May-29 20:14 302 0 gusting 0 8.9
2020-May-29 20:08 274 8.9
2020-May-29 20:03 301 8.9
2020-May-29 19:58 302 9.4
2020-May-29 19:52 302 9.4
2020-May-29 19:47 300 9.4
2020-May-29 19:42 302 9.4
2020-May-29 19:37 300 10.0
2020-May-29 19:32 300 10.0
2020-May-29 19:27 276 10.0
2020-May-29 19:21 004 10.0
2020-May-29 19:16 004 9.4
2020-May-29 19:11 004 9.4
2020-May-29 19:06 003 9.4
2020-May-29 19:01 004 10.0
2020-May-29 18:56 004 10.0
2020-May-29 18:51 004 10.0
2020-May-29 18:45 003 10.0
2020-May-29 18:40 004 10.0
2020-May-29 18:35 003 10.0
2020-May-29 18:29 004 10.0
2020-May-29 18:24 004 10.0
2020-May-29 18:19 004 10.6
2020-May-29 18:13 004 10.6
2020-May-29 18:08 276 10.6
2020-May-29 18:03 276 0 gusting 0 10.6
2020-May-29 17:57 026 0 gusting 1 10.6
2020-May-29 17:52 025 1 gusting 3 10.6
2020-May-29 17:47 044 1 gusting 3 10.6
2020-May-29 17:42 343 10.6
2020-May-29 17:36 261 10.6
2020-May-29 17:31 252 10.6
2020-May-29 17:26 269 10.6
2020-May-29 17:21 347 10.6
2020-May-29 17:15 347 10.6
2020-May-29 17:10 325 10.6
2020-May-29 17:05 293 10.6
2020-May-29 17:00 293 11.1
2020-May-29 16:55 293 11.1
2020-May-29 16:50 327 11.1
2020-May-29 16:44 340 11.1
2020-May-29 16:39 340 11.1
2020-May-29 16:34 341 11.1
2020-May-29 16:28 266 11.1
2020-May-29 16:23 117 11.1
2020-May-29 16:18 117 11.1
2020-May-29 16:12 121 11.1
2020-May-29 16:07 121 11.1
2020-May-29 16:02 121 11.1
2020-May-29 15:57 347 11.1
2020-May-29 15:52 347 10.6
2020-May-29 15:46 348 10.6
2020-May-29 15:41 309 10.6
2020-May-29 15:36 253 11.1
2020-May-29 15:31 253 11.1
2020-May-29 15:26 129 0 gusting 0 11.1
2020-May-29 15:20 127 0 gusting 6 11.7
2020-May-29 15:15 126 1 gusting 6 12.8
2020-May-29 15:10 026 2 gusting 10 13.9
2020-May-29 15:05 217 2 gusting 10 15.6
2020-May-29 15:00 127 2 gusting 10 16.1
2020-May-29 14:55 050 2 gusting 8 17.2
2020-May-29 14:49 328 0 gusting 2 18.9
2020-May-29 14:44 302 19.4
2020-May-29 14:39 340 19.4
2020-May-29 14:34 276 0 gusting 1 19.4
2020-May-29 14:29 048 0 gusting 2 18.9
2020-May-29 14:24 054 0 gusting 2 18.9
2020-May-29 14:19 136 0 gusting 3 19.4
2020-May-29 14:14 162 0 gusting 3 19.4
2020-May-29 14:08 216 0 gusting 2 20.0
2020-May-29 14:03 138 0 gusting 2 19.4
2020-May-29 13:58 171 0 gusting 2 18.9
2020-May-29 13:53 115 0 gusting 2 19.4
2020-May-29 13:48 228 0 gusting 2 18.9
2020-May-29 13:43 325 18.3
2020-May-29 13:37 246 18.3
2020-May-29 13:32 266 0 gusting 1 17.8
2020-May-29 13:27 264 18.3
2020-May-29 13:22 219 18.3
2020-May-29 13:17 300 17.8
2020-May-29 13:11 266 0 gusting 2 18.3
2020-May-29 13:06 233 0 gusting 2 17.8
2020-May-29 13:01 241 0 gusting 3 17.8
2020-May-29 12:56 285 0 gusting 3 17.8
2020-May-29 12:50 162 1 gusting 5 17.8
2020-May-29 12:45 274 0 gusting 5 17.2
2020-May-29 12:40 287 0 gusting 3 17.2
2020-May-29 12:35 045 1 gusting 5 16.7
2020-May-29 12:29 232 0 gusting 5 16.7
2020-May-29 12:24 283 0 gusting 2 16.1
2020-May-29 12:19 345 0 gusting 3 15.6
2020-May-29 12:14 051 0 gusting 3 16.1
2020-May-29 12:09 153 0 gusting 2 16.7
2020-May-29 12:03 276 0 gusting 1 17.2
2020-May-29 11:58 046 0 gusting 2 17.8
2020-May-29 11:53 271 0 gusting 3 18.3
2020-May-29 11:48 283 0 gusting 3 18.3
2020-May-29 11:43 342 1 gusting 3 18.3
2020-May-29 11:38 242 1 gusting 5 18.3
2020-May-29 11:33 283 1 gusting 5 18.9
2020-May-29 11:28 214 1 gusting 5 18.9
2020-May-29 11:22 242 1 gusting 5 18.3
2020-May-29 11:17 102 1 gusting 3 17.8
2020-May-29 11:12 249 1 gusting 4 17.2
2020-May-29 11:07 226 0 gusting 4 17.2
2020-May-29 11:02 290 0 gusting 4 17.2
2020-May-29 10:56 287 1 gusting 4 17.2
2020-May-29 10:51 278 1 gusting 4 17.8
2020-May-29 10:46 239 2 gusting 6 18.3
2020-May-29 10:41 285 1 gusting 6 18.3
2020-May-29 10:36 284 1 gusting 6 17.8
2020-May-29 10:31 221 1 gusting 6 17.8
2020-May-29 10:25 260 2 gusting 5 17.8
2020-May-29 10:20 029 1 gusting 5 17.8
2020-May-29 10:15 233 1 gusting 5 17.8
2020-May-29 10:09 190 0 gusting 2 17.8
2020-May-29 10:04 015 0 gusting 6 17.2
2020-May-29 09:59 210 1 gusting 6 17.2
2020-May-29 09:53 269 0 gusting 4 17.2
2020-May-29 09:48 030 1 gusting 5 17.2
2020-May-29 09:43 269 1 gusting 5 17.2
2020-May-29 09:38 252 0 gusting 3 17.2
2020-May-29 09:32 252 1 gusting 4 16.7
2020-May-29 09:27 262 1 gusting 4 16.7
2020-May-29 09:22 163 1 gusting 5 16.7
2020-May-29 09:17 233 1 gusting 5 16.1
2020-May-29 09:12 243 1 gusting 4 16.7
2020-May-29 09:06 244 1 gusting 4 16.7
2020-May-29 09:01 239 1 gusting 5 15.6
2020-May-29 08:56 257 2 gusting 5 15.6
2020-May-29 08:51 242 1 gusting 6 15.6
2020-May-29 08:46 224 1 gusting 6 15.0
2020-May-29 08:41 242 1 gusting 4 15.0
2020-May-29 08:35 226 1 gusting 4 14.4
2020-May-29 08:30 252 1 gusting 4 14.4
2020-May-29 08:25 205 0 gusting 5 13.9
2020-May-29 08:19 232 1 gusting 4 13.9
2020-May-29 08:14 285 1 gusting 4 13.3
2020-May-29 08:09 242 13.9
2020-May-29 08:04 252 13.9
2020-May-29 07:58 277 13.3
2020-May-29 07:53 214 13.3
2020-May-29 07:48 015 13.3
2020-May-29 07:42 205 12.8
2020-May-29 07:37 255 12.8
2020-May-29 07:32 253 12.8
2020-May-29 07:27 255 12.2
2020-May-29 07:22 233 12.2
2020-May-29 07:16 328 12.2
2020-May-29 07:11 330 12.2
2020-May-29 07:06 276 12.2
2020-May-29 07:00 274 12.2
2020-May-29 06:55 274 12.2
2020-May-29 06:50 278 11.7
2020-May-29 06:45 239 12.2
2020-May-29 06:39 333 11.7
2020-May-29 06:34 252 11.7
2020-May-29 06:29 253 11.7
2020-May-29 06:24 250 11.7
2020-May-29 06:18 250 11.7
2020-May-29 06:13 262 11.1
2020-May-29 06:08 261 11.1
2020-May-29 06:02 262 11.1
2020-May-29 05:57 261 11.1
2020-May-29 05:52 263 11.1
2020-May-29 05:46 269 10.6
2020-May-29 05:41 266 11.1
2020-May-29 05:36 266 10.6
2020-May-29 05:31 266 10.6
2020-May-29 05:26 228 10.6
2020-May-29 05:20 226 10.6
2020-May-29 05:15 267 10.6
2020-May-29 05:10 266 10.6
2020-May-29 05:05 225 10.6
2020-May-29 04:59 218 10.0
2020-May-29 04:54 262 10.0
2020-May-29 04:49 262 10.0
2020-May-29 04:44 269 10.0
2020-May-29 04:39 250 10.0
2020-May-29 04:34 262 10.0
2020-May-29 04:28 263 10.0
2020-May-29 04:23 266 10.0
2020-May-29 04:18 246 10.0
2020-May-29 04:13 245 10.0
2020-May-29 04:08 249 10.0
2020-May-29 04:03 252 9.4
2020-May-29 03:57 252 9.4
2020-May-29 03:53 273 9.4
2020-May-29 03:47 273 9.4
2020-May-29 03:42 273 9.4
2020-May-29 03:37 273 9.4
2020-May-29 03:32 273 9.4
2020-May-29 03:26 273 9.4
2020-May-29 03:21 273 9.4
2020-May-29 03:16 248 9.4
2020-May-29 03:11 240 9.4
2020-May-29 03:05 240 9.4
2020-May-29 03:00 240 8.9
2020-May-29 02:55 240 8.9
2020-May-29 02:50 275 8.9
2020-May-29 02:44 293 8.9
2020-May-29 02:39 293 8.9
2020-May-29 02:34 297 8.9
2020-May-29 02:28 296 8.9
2020-May-29 02:23 297 8.9
2020-May-29 02:18 297 8.9
2020-May-29 02:13 296 8.9
2020-May-29 02:07 297 8.9
2020-May-29 02:02 297 8.9
2020-May-29 01:57 354 8.9
2020-May-29 01:52 354 8.9
2020-May-29 01:46 356 8.9
2020-May-29 01:41 347 8.9
2020-May-29 01:36 113 8.9
2020-May-29 01:31 113 8.9
2020-May-29 01:26 113 8.9
2020-May-29 01:21 098 8.9
2020-May-29 01:15 046 8.9
2020-May-29 01:10 092 8.9
2020-May-29 01:05 277 8.9
2020-May-29 01:00 277 8.9
2020-May-29 00:55 278 8.9
2020-May-29 00:49 267 8.9
2020-May-29 00:44 267 8.3
2020-May-29 00:39 267 8.3
2020-May-29 00:34 267 8.3
2020-May-29 00:29 267 8.3
2020-May-29 00:23 253 8.3
2020-May-29 00:18 354 8.3
2020-May-29 00:12 356 8.3
2020-May-29 00:07 341 8.3
2020-May-29 00:02 288 8.3
2020-May-28 23:56 290 8.3
2020-May-28 23:51 288 8.3
2020-May-28 23:46 307 8.3
2020-May-28 23:41 306 8.3
2020-May-28 23:35 290 8.3
2020-May-28 23:30 290 8.3
2020-May-28 23:25 289 8.3
2020-May-28 23:20 290 8.3
2020-May-28 23:14 290 8.3
2020-May-28 23:09 290 8.3
2020-May-28 23:04 289 8.3
2020-May-28 22:58 291 8.3
2020-May-28 22:53 291 8.3
2020-May-28 22:48 291 8.9
2020-May-28 22:43 291 8.9
2020-May-28 22:37 290 8.9
2020-May-28 22:32 290 8.9
2020-May-28 22:27 290 8.9
2020-May-28 22:22 290 9.4
2020-May-28 22:17 290 9.4
2020-May-28 22:12 290 9.4
2020-May-28 22:06 290 9.4
2020-May-28 22:01 291 9.4
2020-May-28 21:56 291 9.4
2020-May-28 21:51 291 9.4
2020-May-28 21:46 291 10.0
2020-May-28 21:41 290 10.0
2020-May-28 21:35 310 10.0
2020-May-28 21:30 280 10.0
2020-May-28 21:25 235 10.0
2020-May-28 21:20 235 10.0
2020-May-28 21:15 235 10.0
2020-May-28 21:10 234 10.0
2020-May-28 21:05 235 10.0
2020-May-28 21:00 233 10.0
2020-May-28 20:55 235 10.0
2020-May-28 20:49 233 10.0
2020-May-28 20:44 232 10.0
2020-May-28 20:39 231 10.0
2020-May-28 20:33 229 10.0
2020-May-28 20:28 280 10.0
2020-May-28 20:23 281 10.0
2020-May-28 20:18 281 10.0
2020-May-28 20:13 281 10.6
2020-May-28 20:08 243 10.6
2020-May-28 20:02 259 10.6
2020-May-28 19:57 259 0 gusting 1 10.6
2020-May-28 19:52 284 0 gusting 1 10.6
2020-May-28 19:47 300 10.6
2020-May-28 19:41 252 10.6
2020-May-28 19:36 250 10.6
2020-May-28 19:31 247 0 gusting 2 10.6
2020-May-28 19:25 269 0 gusting 2 10.6
2020-May-28 19:20 249 10.6
2020-May-28 19:14 270 10.6
2020-May-28 19:09 270 0 gusting 1 10.6
2020-May-28 19:03 270 1 gusting 4 10.6
2020-May-28 18:58 281 2 gusting 5 10.6
2020-May-28 18:53 277 1 gusting 5 10.6
2020-May-28 18:47 285 0 gusting 4 10.6
2020-May-28 18:42 262 10.0
2020-May-28 18:37 262 10.6
2020-May-28 18:32 261 0 gusting 3 10.6
2020-May-28 18:27 263 0 gusting 3 10.0
2020-May-28 18:21 269 9.4
2020-May-28 18:16 273 10.0
2020-May-28 18:10 273 10.0
2020-May-28 18:05 273 10.6
2020-May-28 17:59 273 10.6
2020-May-28 17:54 273 10.6
2020-May-28 17:49 355 10.6
2020-May-28 17:44 013 11.1
2020-May-28 17:38 013 11.1
2020-May-28 17:33 013 11.7
2020-May-28 17:28 013 11.7
2020-May-28 17:23 013 12.2
2020-May-28 17:18 013 12.2
2020-May-28 17:13 013 12.8
2020-May-28 17:07 013 0 gusting 1 12.8
2020-May-28 17:02 021 0 gusting 1 13.3
2020-May-28 16:57 016 0 gusting 2 13.9
2020-May-28 16:52 139 0 gusting 2 13.9
2020-May-28 16:47 094 0 gusting 2 14.4
2020-May-28 16:42 124 0 gusting 2 14.4
2020-May-28 16:37 110 0 gusting 2 15.0
2020-May-28 16:31 035 0 gusting 2 16.1
2020-May-28 16:26 122 0 gusting 2 16.7
2020-May-28 16:21 236 0 gusting 2 16.1
2020-May-28 16:16 120 0 gusting 3 16.7
2020-May-28 16:10 236 0 gusting 4 16.1
2020-May-28 16:05 226 0 gusting 4 15.6
2020-May-28 16:00 201 0 gusting 5 15.0
2020-May-28 15:55 282 0 gusting 5 15.0
2020-May-28 15:50 148 0 gusting 2 15.0
2020-May-28 15:45 117 0 gusting 4 15.0
2020-May-28 15:39 226 0 gusting 4 15.0
2020-May-28 15:34 255 1 gusting 4 15.0
2020-May-28 15:29 106 1 gusting 5 15.6
2020-May-28 15:24 120 1 gusting 5 15.6
2020-May-28 15:19 219 1 gusting 6 15.6
2020-May-28 15:14 246 2 gusting 6 16.1
2020-May-28 15:08 119 1 gusting 5 16.7
2020-May-28 15:03 259 2 gusting 7 16.7
2020-May-28 14:58 138 2 gusting 7 17.2
2020-May-28 14:53 070 1 gusting 7 17.8
2020-May-28 14:48 191 0 gusting 2 18.3
2020-May-28 14:43 149 0 gusting 4 18.3
2020-May-28 14:37 300 2 gusting 5 18.3
2020-May-28 14:32 283 1 gusting 5 18.3
2020-May-28 14:26 253 1 gusting 4 18.3
2020-May-28 14:21 246 1 gusting 5 17.8
2020-May-28 14:16 288 1 gusting 5 17.8
2020-May-28 14:11 162 0 gusting 5 17.2
2020-May-28 14:06 081 0 gusting 4 17.2
2020-May-28 14:01 131 1 gusting 4 17.2
2020-May-28 13:56 255 1 gusting 6 17.2
2020-May-28 13:50 350 1 gusting 6 17.2
2020-May-28 13:45 084 1 gusting 3 17.2
2020-May-28 13:40 273 0 gusting 3 17.2
2020-May-28 13:35 171 1 gusting 6 17.2
2020-May-28 13:30 158 1 gusting 6 17.2
2020-May-28 13:24 063 0 gusting 3 17.2
2020-May-28 13:19 277 0 gusting 2 17.2
2020-May-28 13:14 128 0 gusting 1 17.2
2020-May-28 13:09 151 17.2
2020-May-28 13:04 075 0 gusting 3 17.2
2020-May-28 12:58 075 0 gusting 3 17.2
2020-May-28 12:53 035 0 gusting 3 17.8
2020-May-28 12:48 115 0 gusting 3 17.8
2020-May-28 12:43 230 0 gusting 5 18.3
2020-May-28 12:37 158 1 gusting 5 18.3
2020-May-28 12:32 267 0 gusting 4 18.9
2020-May-28 12:27 228 0 gusting 3 18.9
2020-May-28 12:21 155 0 gusting 3 18.3
2020-May-28 12:16 276 17.2
2020-May-28 12:11 246 1 gusting 5 17.2
2020-May-28 12:05 260 2 gusting 6 17.8
2020-May-28 12:00 258 0 gusting 2 17.8
2020-May-28 11:55 100 0 gusting 4 18.3
2020-May-28 11:49 245 0 gusting 4 18.3
2020-May-28 11:44 122 0 gusting 3 18.3
2020-May-28 11:39 186 0 gusting 3 18.3
2020-May-28 11:34 146 2 gusting 8 17.8
2020-May-28 11:28 262 2 gusting 8 18.3
2020-May-28 11:23 287 2 gusting 5 18.3
2020-May-28 11:18 238 1 gusting 5 18.3
2020-May-28 11:13 228 0 gusting 4 17.2
2020-May-28 11:08 272 1 gusting 4 16.7
2020-May-28 11:02 250 1 gusting 4 16.7
2020-May-28 10:57 044 2 gusting 6 16.7
2020-May-28 10:51 226 1 gusting 6 17.2
2020-May-28 10:46 121 1 gusting 5 17.2
2020-May-28 10:41 242 1 gusting 5 17.2
2020-May-28 10:36 106 2 gusting 9 17.2
2020-May-28 10:30 249 3 gusting 9 17.2
2020-May-28 10:25 252 3 gusting 7 17.2
2020-May-28 10:20 278 3 gusting 11 17.2
2020-May-28 10:15 224 1 gusting 11 17.2
2020-May-28 10:09 224 1 gusting 6 17.8
2020-May-28 10:04 253 1 gusting 6 17.8
2020-May-28 09:59 093 1 gusting 4 17.2
2020-May-28 09:53 065 2 gusting 8 17.2
2020-May-28 09:48 071 2 gusting 8 17.8
2020-May-28 09:43 054 2 gusting 7 18.3
2020-May-28 09:38 068 2 gusting 9 18.3
2020-May-28 09:33 046 2 gusting 6 18.3
2020-May-28 09:27 267 2 gusting 8 18.3
2020-May-28 09:22 027 3 gusting 8 18.3
2020-May-28 09:16 280 2 gusting 8 18.3
2020-May-28 09:11 322 2 gusting 8 18.3
2020-May-28 09:06 114 3 gusting 7 17.2
2020-May-28 09:00 067 2 gusting 6 17.8
2020-May-28 08:55 029 2 gusting 10 17.8
2020-May-28 08:50 228 2 gusting 10 17.8
2020-May-28 08:45 048 2 gusting 6 17.2
2020-May-28 08:40 280 2 gusting 6 17.2
2020-May-28 08:35 298 2 gusting 6 16.7
2020-May-28 08:30 215 2 gusting 6 16.7
2020-May-28 08:25 141 1 gusting 6 17.2
2020-May-28 08:19 224 1 gusting 6 16.7
2020-May-28 08:14 210 1 gusting 9 16.7
2020-May-28 08:09 357 2 gusting 9 16.7
2020-May-28 08:03 267 1 gusting 6 16.7
2020-May-28 07:58 245 0 gusting 6 16.7
2020-May-28 07:53 233 1 gusting 6 17.2
2020-May-28 07:48 345 1 gusting 6 17.2
2020-May-28 07:43 255 2 gusting 5 17.8
2020-May-28 07:38 283 2 gusting 6 17.8
2020-May-28 07:33 294 1 gusting 6 17.2
2020-May-28 07:27 212 0 gusting 4 17.2
2020-May-28 07:22 100 0 gusting 6 17.2
2020-May-28 07:16 269 1 gusting 6 17.2
2020-May-28 07:11 042 2 gusting 6 17.2
2020-May-28 07:06 321 2 gusting 9 16.7
2020-May-28 07:01 231 1 gusting 9 16.7
2020-May-28 06:55 242 0 gusting 3 16.7
2020-May-28 06:50 097 15.6
2020-May-28 06:45 101 15.0
2020-May-28 06:39 117 15.0
2020-May-28 06:34 124 14.4
2020-May-28 06:28 163 14.4
2020-May-28 06:23 281 14.4
2020-May-28 06:18 283 13.9
2020-May-28 06:13 290 13.9
2020-May-28 06:07 345 13.9
2020-May-28 06:02 348 13.9
2020-May-28 05:57 348 13.9
2020-May-28 05:52 348 13.9
2020-May-28 05:46 348 13.9
2020-May-28 05:41 348 13.3
2020-May-28 05:36 349 13.3
2020-May-28 05:31 348 13.3
2020-May-28 05:25 252 13.3
2020-May-28 05:20 125 13.3
2020-May-28 05:15 131 13.3
2020-May-28 05:10 049 0 gusting 1 13.3
2020-May-28 05:04 041 0 gusting 1 13.3
2020-May-28 04:59 070 13.3
2020-May-28 04:54 266 12.8
2020-May-28 04:49 229 11.7
2020-May-28 04:43 011 11.7
2020-May-28 04:38 239 11.1
2020-May-28 04:33 264 11.1
2020-May-28 04:27 318 10.6
2020-May-28 04:22 318 10.6
2020-May-28 04:17 316 9.4
2020-May-28 04:11 316 8.9
2020-May-28 04:06 318 8.3
2020-May-28 04:01 318 8.3
2020-May-28 03:56 304 7.8
2020-May-28 03:50 304 7.2
2020-May-28 03:45 312 7.2
2020-May-28 03:40 312 7.2
2020-May-28 03:35 312 7.2
2020-May-28 03:30 312 7.2
2020-May-28 03:19 301 7.2
2020-May-28 03:14 301 7.2
2020-May-28 03:08 300 7.2
2020-May-28 03:03 294 7.2
2020-May-28 02:57 297 7.2
2020-May-28 02:52 306 6.7
2020-May-28 02:47 308 6.7
2020-May-28 02:42 308 6.7
2020-May-28 02:37 307 6.7
2020-May-28 02:31 308 6.7
2020-May-28 02:26 307 6.7
2020-May-28 02:21 309 6.7
2020-May-28 02:15 274 6.7
2020-May-28 02:10 274 6.7
2020-May-28 02:05 259 6.7
2020-May-28 01:59 239 6.7
2020-May-28 01:54 236 6.1
2020-May-28 01:50 236 6.1
2020-May-28 01:44 266 6.1
2020-May-28 01:39 287 6.1
2020-May-28 01:34 286 6.1
2020-May-28 01:29 287 6.1
2020-May-28 01:24 286 6.1
2020-May-28 01:19 286 6.1
2020-May-28 01:13 286 6.1
2020-May-28 01:09 290 6.1
2020-May-28 01:03 290 6.1
2020-May-28 00:58 290 6.1
2020-May-28 00:52 287 6.7
2020-May-28 00:48 288 6.7
2020-May-28 00:42 286 6.7
2020-May-28 00:37 287 6.7
2020-May-28 00:32 287 6.7
2020-May-28 00:26 287 6.7
2020-May-28 00:21 290 6.7
2020-May-28 00:16 290 6.7
2020-May-28 00:11 286 6.7
2020-May-28 00:05 286 6.7
2020-May-28 00:00 290 6.7
2020-May-27 23:55 290 6.7
2020-May-27 23:50 290 6.7
2020-May-27 23:45 290 6.7
2020-May-27 23:40 290 6.7
2020-May-27 23:35 290 6.7
2020-May-27 23:29 290 6.7
2020-May-27 23:24 289 6.7
2020-May-27 23:19 290 6.7
2020-May-27 23:13 290 6.7
2020-May-27 23:08 304 6.7
2020-May-27 23:02 304 7.2
2020-May-27 22:57 023 7.2
2020-May-27 22:52 023 7.2
2020-May-27 22:47 011 7.2
2020-May-27 22:42 334 7.8
2020-May-27 22:37 259 7.8
2020-May-27 22:31 262 0 gusting 1 7.8
2020-May-27 22:26 252 0 gusting 1 7.8
2020-May-27 22:21 253 7.8
2020-May-27 22:16 262 0 gusting 2 7.8
2020-May-27 22:10 262 0 gusting 2 8.3
2020-May-27 22:05 255 0 gusting 4 7.8